Date,TemperatureHighF,TemperatureAvgF,TemperatureLowF,DewpointHighF,DewpointAvgF,DewpointLowF,HumidityHigh,HumidityAvg,HumidityLow,PressureMaxIn,PressureMinIn,WindSpeedMaxMPH,WindSpeedAvgMPH,GustSpeedMaxMPH,PrecipitationSumIn
2013-1-1,51.6,43.2,38.7,37.0,32.6,28.0,83,67,45,29.80,29.71,16,2,0,0.00
2013-1-2,59.0,50.3,40.8,30.0,24.3,18.0,64,37,27,29.77,29.67,11,2,0,0.00
2013-1-3,60.6,51.4,45.1,34.0,24.1,15.0,60,36,24,29.78,29.68,4,0,0,0.00
2013-1-4,62.6,52.0,44.2,39.0,29.3,19.0,76,44,24,29.80,29.72,2,0,0,0.00
2013-1-5,55.5,45.2,40.2,46.0,40.8,35.0,94,85,65,29.80,29.65,10,1,0,0.26
2013-1-6,43.1,40.3,37.6,41.0,38.8,36.0,95,94,92,29.77,29.58,18,3,0,0.77
2013-1-7,53.5,46.3,38.0,42.0,38.5,35.0,95,75,51,29.82,29.72,9,1,0,0.01
2013-1-8,63.5,54.8,46.3,45.0,41.6,38.0,80,62,49,29.76,29.66,10,2,0,0.00
2013-1-9,55.9,47.6,37.5,45.0,40.5,36.0,96,79,53,29.67,29.56,12,2,0,0.32
2013-1-10,39.6,37.6,33.8,38.0,34.7,32.0,95,89,80,29.77,29.62,16,6,0,0.44
2013-1-11,45.1,39.3,35.9,38.0,35.2,31.0,95,85,73,29.83,29.70,19,5,0,0.14
2013-1-12,44.0,37.3,32.9,37.0,31.9,27.0,97,82,55,29.80,29.70,6,1,0,0.15
2013-1-13,44.5,37.4,31.7,31.0,22.0,14.0,82,55,34,29.80,29.71,8,2,0,0.00
2013-1-14,44.7,38.1,31.4,21.0,16.4,12.0,53,42,35,29.96,29.77,11,2,0,0.00
2013-1-15,52.4,43.5,36.9,28.0,21.3,13.0,61,42,31,30.02,29.94,5,1,0,0.00
2013-1-16,55.9,49.0,41.0,35.0,30.5,26.0,60,49,40,29.95,29.78,7,0,0,0.00
2013-1-17,69.9,59.9,52.4,39.0,31.2,24.0,43,34,24,29.78,29.68,6,1,0,0.00
2013-1-18,70.0,60.1,51.6,34.0,28.9,22.0,45,31,23,29.72,29.66,6,0,0,0.00
2013-1-19,70.4,60.1,53.8,36.0,25.6,21.0,35,27,19,29.74,29.68,10,2,0,0.00
2013-1-20,70.5,61.1,52.6,31.0,21.4,16.0,30,22,16,29.73,29.64,18,4,0,0.00
2013-1-21,70.1,62.7,55.8,32.0,18.5,7.0,26,18,12,29.69,29.60,13,4,0,0.00
2013-1-22,74.3,62.2,57.8,36.0,21.8,14.0,33,21,15,29.63,29.55,10,1,0,0.00
2013-1-23,63.9,56.9,47.9,41.0,30.6,19.0,77,40,20,29.58,29.50,16,3,0,0.01
2013-1-24,54.7,51.5,46.1,53.0,48.4,39.0,96,89,62,29.73,29.55,13,1,0,0.12
2013-1-25,63.1,55.3,51.4,56.0,52.6,50.0,97,91,76,29.73,29.59,15,1,0,0.02
2013-1-26,52.2,47.1,40.5,51.0,45.3,39.0,97,93,80,29.65,29.55,13,2,0,0.00
2013-1-27,46.9,41.2,38.6,41.0,38.5,37.0,96,90,73,29.74,29.64,17,5,0,0.14
2013-1-28,46.5,41.6,37.7,42.0,39.2,36.0,96,91,80,29.87,29.73,12,4,0,0.03
2013-1-29,52.1,44.9,38.7,44.0,40.3,37.0,97,84,63,29.91,29.83,5,1,0,0.00
2013-1-30,63.3,54.2,47.4,45.0,40.1,36.0,73,60,46,29.91,29.81,6,0,0,0.00
2013-1-31,64.4,55.8,49.0,44.0,39.0,30.0,68,55,32,29.82,29.71,3,0,0,0.00
2013-2-1,70.5,58.1,52.8,46.0,38.4,33.0,64,49,35,29.75,29.66,4,0,0,0.00
2013-2-2,64.0,56.0,43.1,48.0,38.3,32.0,92,53,35,29.80,29.73,4,0,0,0.00
2013-2-3,58.2,44.9,40.2,51.0,42.2,38.0,97,90,64,29.77,29.69,8,1,0,0.01
2013-2-4,65.4,55.6,46.3,46.0,37.8,30.0,79,53,31,29.72,29.61,7,1,0,0.00
2013-2-5,48.1,43.3,37.6,45.0,40.7,36.0,96,91,68,29.72,29.58,5,0,0,0.00
2013-2-6,53.1,43.4,37.1,44.0,38.6,33.0,95,84,56,29.76,29.69,7,1,0,0.00
2013-2-7,49.5,41.9,37.0,43.0,38.0,35.0,95,86,65,29.75,29.58,10,1,0,0.09
2013-2-8,41.7,38.0,32.9,39.0,36.2,31.0,96,93,80,29.58,29.49,10,2,0,0.33
2013-2-9,51.1,41.4,36.5,38.0,32.6,26.0,94,73,42,29.67,29.57,6,1,0,0.01
2013-2-10,55.1,45.9,37.5,35.0,30.1,25.0,74,55,39,29.68,29.59,6,0,0,0.00
2013-2-11,54.6,47.1,41.2,36.0,31.2,27.0,68,55,38,29.80,29.62,6,1,0,0.00
2013-2-12,55.4,47.7,41.2,42.0,32.3,26.0,71,56,42,29.90,29.80,6,0,0,0.00
2013-2-13,57.4,50.5,43.3,44.0,36.0,30.0,69,58,44,29.88,29.77,7,1,0,0.00
2013-2-14,64.7,56.1,47.3,42.0,37.3,33.0,64,50,36,29.77,29.70,6,1,0,0.00
2013-2-15,71.7,62.6,55.0,41.0,33.7,29.0,46,34,27,29.79,29.73,12,3,0,0.00
2013-2-16,70.3,60.8,51.1,38.0,31.3,25.0,58,34,24,29.76,29.60,10,2,0,0.00
2013-2-17,57.4,48.1,40.3,45.0,38.3,28.0,95,71,45,29.60,29.52,5,0,0,0.00
2013-2-18,43.3,40.4,37.1,41.0,37.9,34.0,95,90,74,29.62,29.55,6,0,0,0.01
2013-2-19,44.3,37.9,33.9,43.0,36.2,32.0,96,93,85,29.56,29.34,15,4,0,0.41
2013-2-20,48.4,40.0,33.4,42.0,37.1,32.0,95,89,76,29.66,29.40,13,3,0,0.07
2013-2-21,49.3,42.6,38.7,39.0,36.6,33.0,95,80,60,29.75,29.62,15,4,0,0.00
2013-2-22,57.7,47.7,39.6,40.0,32.8,27.0,92,58,39,29.83,29.74,12,1,0,0.00
2013-2-23,49.0,42.7,39.0,42.0,38.6,33.0,95,86,72,29.82,29.71,13,3,0,0.01
2013-2-24,55.2,45.7,39.4,35.0,28.2,22.0,78,52,31,29.82,29.73,12,2,0,0.00
2013-2-25,59.9,49.0,41.1,42.0,32.7,24.0,87,55,37,29.83,29.73,9,1,0,0.00
2013-2-26,60.6,52.6,45.4,37.0,27.1,21.0,73,39,24,29.77,29.69,12,2,0,0.00
2013-2-27,67.2,56.6,48.1,39.0,25.0,18.0,47,30,18,29.91,29.76,7,1,0,0.00
2013-2-28,63.5,55.1,47.5,49.0,42.1,31.0,81,63,45,29.98,29.90,11,1,0,0.00
2013-3-1,69.7,61.3,54.3,50.0,45.3,34.0,74,57,35,29.97,29.78,13,4,0,0.00
2013-3-2,68.3,61.6,53.0,48.0,37.3,28.0,65,41,28,29.78,29.61,7,1,0,0.00
2013-3-3,57.9,51.7,41.5,46.0,41.4,35.0,95,70,45,29.65,29.60,11,1,0,0.00
2013-3-4,55.5,44.5,37.8,49.0,41.9,36.0,97,91,74,29.70,29.62,8,1,0,0.01
2013-3-5,53.5,45.0,37.5,45.0,38.6,29.0,97,80,48,29.64,29.48,23,5,0,0.02
2013-3-6,51.3,46.1,42.2,44.0,40.8,36.0,95,83,60,29.65,29.48,22,6,0,0.36
2013-3-18,66.8,57.6,45.4,50.0,35.9,24.0,79,46,30,29.67,29.60,4,1,0,0.00
2013-3-19,68.9,57.4,45.5,46.0,37.4,20.0,84,49,28,29.71,29.60,20,2,0,0.03
2013-3-20,59.0,53.7,48.8,51.0,46.8,43.0,94,78,57,29.68,29.62,6,0,0,0.03
2013-3-21,57.0,47.0,40.0,48.0,42.7,37.0,97,86,64,29.68,29.58,10,1,0,0.03
2013-3-22,62.1,51.1,42.5,38.0,29.9,23.0,82,46,24,29.65,29.58,13,2,0,0.00
2013-3-23,65.3,53.6,46.6,41.0,27.6,17.0,67,38,23,29.67,29.60,9,1,0,0.00
2013-3-24,67.3,56.4,47.9,47.0,33.9,26.0,57,43,35,29.63,29.54,6,1,0,0.00
2013-3-25,64.6,52.5,38.9,49.0,40.2,33.0,94,65,47,29.55,29.50,6,1,0,0.00
2013-3-26,63.1,50.5,38.9,49.0,41.3,31.0,95,72,41,29.56,29.51,5,1,0,0.00
2013-3-27,65.5,52.3,43.5,53.0,46.1,39.0,92,79,62,29.59,29.50,12,2,0,0.00
2013-3-28,62.0,52.9,48.1,54.0,49.0,46.0,96,87,68,29.64,29.56,5,0,0,0.00
2013-3-29,68.8,58.6,49.2,53.0,48.8,44.0,91,71,52,29.63,29.58,9,1,0,0.00
2013-3-30,62.0,54.0,46.3,53.0,48.6,44.0,95,82,68,29.61,29.55,11,2,0,0.19
2013-3-31,63.2,53.6,47.3,51.0,45.6,43.0,90,75,58,29.63,29.56,15,5,0,0.19
2013-4-1,58.5,51.1,46.7,53.0,48.2,45.0,96,89,80,29.71,29.60,6,1,0,0.12
2013-4-2,62.6,53.2,43.8,54.0,47.5,43.0,96,82,61,29.73,29.66,9,1,0,0.00
2013-4-3,71.6,59.0,49.7,55.0,48.3,40.0,90,69,49,29.68,29.55,6,1,0,0.00
2013-4-4,66.8,55.1,47.5,58.0,49.5,39.0,96,82,57,29.67,29.56,12,2,0,0.05
2013-4-5,59.8,52.1,46.7,52.0,48.1,44.0,96,87,72,29.76,29.67,9,1,0,0.01
2013-4-6,62.6,52.2,44.6,53.0,47.6,43.0,95,85,68,29.77,29.70,7,1,0,0.00
2013-4-7,64.4,52.8,43.8,53.0,45.9,38.0,94,78,59,29.73,29.48,8,2,0,0.03
2013-4-8,53.2,44.7,39.5,46.0,40.1,37.0,95,84,59,29.59,29.43,24,9,0,0.13
2013-4-9,61.0,52.5,39.9,44.0,38.0,31.0,93,60,35,29.67,29.57,13,4,0,0.00
2013-4-10,77.1,63.1,50.4,49.0,39.6,30.0,81,44,33,29.74,29.63,11,3,0,0.00
2013-4-11,59.0,48.5,41.3,51.0,43.7,38.0,97,84,57,29.63,29.46,11,2,0,0.00
2013-4-12,70.0,56.0,41.4,51.0,43.1,35.0,97,66,34,29.49,29.42,10,1,0,0.00
2013-4-13,64.7,48.7,40.3,52.0,42.0,35.0,94,79,57,29.50,29.41,12,3,0,0.00
2013-4-14,58.1,47.4,37.8,43.0,37.9,32.0,94,72,47,29.51,29.45,13,3,0,0.00
2013-4-15,47.8,42.6,38.2,45.0,39.4,35.0,96,88,73,29.55,29.43,20,7,0,0.20
2013-4-16,53.7,44.7,34.6,39.0,34.4,30.0,95,69,48,29.70,29.54,12,2,0,0.00
2013-4-17,58.5,49.6,43.5,36.0,31.5,29.0,60,51,36,29.81,29.71,15,4,0,0.00
2013-4-18,66.9,56.6,47.3,39.0,29.3,23.0,51,36,26,29.83,29.77,9,1,0,0.00
2013-4-19,74.1,62.7,53.4,49.0,39.0,31.0,67,43,31,29.79,29.64,9,1,0,0.00
2013-4-20,74.2,61.2,52.9,50.0,43.0,34.0,68,52,35,29.64,29.56,8,1,0,0.00
2013-4-21,80.2,69.4,60.4,46.0,39.8,34.0,49,35,21,29.58,29.50,10,2,0,0.00
2013-4-22,79.0,70.4,62.3,51.0,42.6,36.0,46,37,31,29.52,29.41,6,1,0,0.00
2013-4-23,70.9,63.3,51.2,50.0,41.3,32.0,86,47,29,29.46,29.38,7,1,0,0.00
2013-4-24,61.4,55.3,46.6,50.0,44.0,31.0,95,68,34,29.51,29.37,11,1,0,0.00
2013-4-25,62.3,51.4,45.2,52.0,47.1,43.0,97,86,65,29.69,29.51,6,1,0,0.01
2013-4-26,73.8,59.6,45.2,55.0,44.7,35.0,94,60,38,29.77,29.68,6,0,0,0.00
2013-4-27,79.6,69.0,58.1,54.0,42.1,31.0,52,38,26,29.75,29.62,4,0,0,0.00
2013-4-28,79.4,70.8,60.5,51.0,37.9,25.0,40,30,21,29.61,29.45,4,0,0,0.00
2013-4-29,82.9,71.4,57.9,53.0,45.2,38.0,60,40,28,29.45,29.33,9,2,0,0.00
2013-4-30,72.8,62.5,44.0,50.0,42.4,26.0,90,50,23,29.42,29.30,2,0,0,0.00
2013-5-1,72.6,65.6,56.5,51.0,36.2,23.0,54,35,20,29.64,29.42,0,0,0,0.00
2013-5-2,85.8,74.3,64.1,48.0,37.6,29.0,37,27,17,29.69,29.63,0,0,0,0.00
2013-5-3,85.4,72.9,61.9,42.0,31.8,21.0,32,22,18,29.64,29.36,5,0,0,0.00
2013-5-4,75.8,67.5,46.2,50.0,39.3,23.0,93,40,19,29.35,29.12,7,1,0,0.00
2013-5-5,65.2,53.7,45.0,48.0,44.9,42.0,95,74,48,29.35,29.15,20,4,0,0.00
2013-5-6,64.5,55.5,49.9,49.0,44.8,43.0,90,69,49,29.52,29.35,17,4,0,0.00
2013-5-7,65.3,55.5,47.7,51.0,47.2,43.0,93,74,56,29.61,29.50,12,1,0,0.00
2013-5-8,63.3,53.2,44.1,52.0,46.6,42.0,92,79,60,29.70,29.60,10,1,0,0.00
2013-5-9,65.0,52.2,43.3,53.0,46.3,39.0,96,81,62,29.75,29.66,10,1,0,0.00
2013-5-10,75.5,64.6,48.6,56.0,50.2,46.0,94,61,45,29.75,29.67,5,1,0,0.00
2013-5-11,85.4,74.0,62.5,56.0,46.2,37.0,61,39,25,29.69,29.61,7,1,0,0.00
2013-5-12,81.8,70.9,61.4,55.0,44.2,32.0,51,39,26,29.66,29.58,14,2,0,0.00
2013-5-13,80.5,66.2,50.3,54.0,45.3,38.0,80,49,28,29.62,29.53,13,1,0,0.00
2013-5-14,65.4,52.8,44.4,51.0,46.2,41.0,96,79,50,29.65,29.51,10,2,0,0.00
2013-5-15,63.9,51.7,42.6,47.0,43.0,36.0,94,74,43,29.67,29.61,12,1,0,0.00
2013-5-16,64.6,53.6,46.0,53.0,47.7,43.0,97,82,54,29.64,29.57,10,2,0,0.00
2013-5-17,64.9,52.8,43.7,48.0,42.8,40.0,91,70,47,29.67,29.55,8,1,0,0.00
2013-5-18,68.0,53.3,41.7,49.0,44.9,40.0,94,76,47,29.72,29.66,10,2,0,0.00
2013-5-19,73.9,59.9,43.4,50.0,43.3,36.0,95,58,39,29.71,29.57,10,2,0,0.00
2013-5-20,83.5,70.1,61.3,48.0,36.5,-99.9,47,31,22,29.58,29.52,12,2,0,0.00
2013-5-21,64.1,54.0,40.5,48.0,38.7,16.0,91,61,16,29.58,29.45,14,4,0,0.00
2013-5-22,57.0,46.4,38.1,42.0,37.3,30.0,94,73,38,29.57,29.51,12,3,0,0.00
2013-5-23,54.8,45.9,40.5,43.0,39.6,37.0,93,80,58,29.62,29.54,25,5,0,0.00
2013-5-24,61.5,49.5,39.7,46.0,39.8,33.0,93,71,47,29.60,29.55,10,2,0,0.00
2013-5-25,59.0,48.4,40.4,46.0,43.0,38.0,95,83,61,29.67,29.58,8,2,0,0.00
2013-5-26,65.7,54.0,46.0,52.0,48.4,44.0,97,83,52,29.73,29.66,9,2,0,0.00
2013-5-27,64.5,54.0,45.9,53.0,49.4,45.0,96,85,65,29.72,29.61,9,1,0,0.02
2013-5-28,65.8,55.5,48.1,58.0,49.9,-99.9,97,85,59,29.61,29.50,11,2,0,0.04
2013-5-29,67.4,55.8,44.5,56.0,47.2,37.0,94,74,54,29.54,29.49,10,2,0,0.00
2013-5-30,71.4,56.5,40.9,48.0,40.5,30.0,95,58,30,29.58,29.50,10,1,0,0.00
2013-5-31,80.3,68.1,54.5,48.0,36.1,20.0,44,31,21,29.57,29.50,12,2,0,0.00
2013-6-1,87.8,75.7,67.1,51.0,44.0,39.0,41,33,25,29.50,29.33,8,1,0,0.00
2013-6-2,70.8,59.2,46.9,52.0,46.7,40.0,95,65,38,29.32,29.26,6,0,0,0.00
2013-6-3,68.1,54.6,43.8,54.0,49.0,43.0,97,83,61,29.43,29.30,6,1,0,0.01
2013-6-4,67.0,56.2,48.5,55.0,50.5,47.0,93,82,64,29.53,29.41,10,1,0,0.00
2013-6-5,67.8,55.7,45.9,54.0,50.0,44.0,97,82,60,29.55,29.51,6,0,0,0.01
2013-6-6,72.3,60.4,46.2,56.0,51.1,44.0,96,73,55,29.51,29.45,5,0,0,0.00
2013-6-7,93.3,78.3,61.6,60.0,52.1,44.0,68,42,27,29.46,29.31,0,0,0,0.00
2013-6-8,92.7,78.6,55.3,60.0,50.4,33.0,89,42,18,29.33,29.25,0,0,0,0.00
2013-6-9,68.9,56.9,50.3,58.0,52.8,49.0,96,87,66,29.44,29.32,0,0,0,0.00
2013-6-10,67.9,56.6,50.6,55.0,51.7,49.0,95,84,62,29.50,29.42,0,0,0,0.00
2013-6-11,71.3,58.1,51.4,58.0,53.3,50.0,97,85,60,29.53,29.47,0,0,0,0.00